Starlink 11385

operational
NORAD ID: 62014 Int'l Des: 2024-213 Owner: SPXS Country: US Constellation: starlink
LEOCIRCULAR

Über Starlink 11385

Beschreibung wird geladen...

Live-Position

3D-Globus wird geladen...

Nächste Überflüge

Höhenverlauf

Altitude vs Time

uPlot chart will show altitude changes over time

Zweizeiliger Elementsatz

1 62014U 24213G 25308.26596081 .00266532 00000-0 21287-2 0 9996
2 62014 53.1570 299.7276 0001755 88.0127 272.1092 15.69780377 55211
Epoch: 4. Nov. 2025 • Age: 8 hours

Aktueller Status

Höhe 362.5 km
Geschwindigkeit 7.70 km/s
Subsatellitenpunkt 44.08°N, 86.04°E
Startdatum 18. Nov. 2024
Alter 0.9 years
Typ internet

Technische Details

Klassifizierung Payload
Masse 960.00 kg
Trockenmasse 910.00 kg
Gesamtmasse 960.00 kg
Länge 0.30 m
Durchmesser 4.10 m
Spannweite 29.00 m
Form Box + pan
Hersteller SPXS
Bus-Typ Starlink V2MD
Phasenstatus In Orbit
Besitzer/Staat SPXS/US

Große Konstellationen

Loading constellations...